Regional Weather Roundup
Issued by NWS Spokane, WA

Home | Current Version | Previous Version | Text Only | Print | Product List | Glossary On
Versions: 1 2 3 4 5 6 7 8 9 10 11 12 13 14 15 16 17 18 19 20 21 22 23 24 25 26 27 28 29 30 31 32 33 34 35 36 37 38 39 40 41 42 43 44 45 46 47 48 49 50
000
NZUS01 KOTX 302210
RWROTX
EASTERN WASHINGTON/NORTHERN IDAHO ROUNDUP
NATIONAL WEATHER SERVICE, SPOKANE WA
300 PM PDT SAT AUG 30 2014

Note: "fair" indicated few or no clouds below 12,000 feet with no
significant weather and/or obstructions to visibility.

...NORTHEAST WASHINGTON AND NORTHERN IDAHO PANHANDLE...

CITY           SKY/WX    TMP DP  RH WIND       PRES   REMARKS
SPOKANE INTL   CLOUDY    72  40  31 SW17G26   29.85F
SPOKANE DOWNTO CLOUDY    74  40  29 W10       29.84F
COEUR D ALENE  PTSUNNY   72  43  35 SW14      29.84F
DEER PARK      CLOUDY    72  39  30 S15       29.83F
SANDPOINT      CLOUDY    70  43  37 SW3       29.82F

...SOUTHEAST WASHINGTON AND SOUTHERN IDAHO PANHANDLE...

CITY           SKY/WX    TMP DP  RH WIND       PRES   REMARKS
WALLA WALLA    PTSUNNY   80  49  33 W17G23    29.85F
PULLMAN/MOSCOW CLOUDY    73  44  35 W18G24    29.88F
LEWISTON       CLOUDY    78  45  30 VRB5      29.81F
LOWELL           N/A     82  46  28 CALM      29.81F

...COLUMBIA BASIN...

CITY           SKY/WX    TMP DP  RH WIND       PRES   REMARKS
EPHRATA        CLOUDY    75  46  35 NW13      29.81F
MOSES LAKE     CLOUDY    77  46  33 SW9       29.82F
TRI CITIES     CLOUDY    80  53  39 SW18      29.81S
HERMISTON      LGT RAIN  72  54  53 W20G26    29.86R
PENDLETON      CLOUDY    75  49  39 W24G32    29.86R

...EAST SLOPES CASCADES...

CITY           SKY/WX    TMP DP  RH WIND       PRES   REMARKS
THE DALLES     CLOUDY    70  61  73 NW8       29.89F
YAKIMA         PTSUNNY   71  47  42 NE7       29.83F
ELLENSBURG     CLOUDY    73  50  44 NW12      29.86F
WENATCHEE      CLOUDY    69  52  54 W7        29.83F
OMAK           CLOUDY    77  40  26 S9        29.77F

...SOUTHERN BRITISH COLUMBIA...

CITY           SKY/WX    TMP DP  RH WIND       PRES   REMARKS
PENTICTON      PTSUNNY   75  45  33 VRB2      29.76F
CRANBROOK      PTSUNNY   72  36  26 W8        29.77S

...WESTERN MONTANA...

CITY           SKY/WX    TMP DP  RH WIND       PRES   REMARKS
MISSOULA       PTSUNNY   75  38  26 W18       29.83F

...NEIGHBORING CITIES...

CITY           SKY/WX    TMP DP  RH WIND       PRES   REMARKS
SEATTLE        LGT RAIN  64  60  87 N5        29.90F
CALGARY        MOSUNNY   66  41  39 VRB2      29.71F



USA.gov is the U.S. government's official web portal to all federal, state and local government web resources and services.